This is the latest recevied weather packets stored in our database for station/object N3FAA. If no packets are shown the sender has not sent any weather packets the latest 10 day(s).
| Time | Temp. | Humidity | Pressure | Rain* | Wind** | Luminosity | Snow |
|---|---|---|---|---|---|---|---|
| 1777606135 | 20.56° C | 40% | 1008.6 hPa | 0 mm | - | 0 W/m² | - |
| 1777605831 | 20.56° C | 40% | 1008.4 hPa | 0 mm | - | 0 W/m² | - |
| 1777605525 | 20.56° C | 40% | 1008.5 hPa | 0 mm | - | 0 W/m² | - |
| 1777605221 | 21.11° C | 39% | 1008.3 hPa | 0 mm | - | 0 W/m² | - |
| 1777604917 | 21.11° C | 38% | 1008.1 hPa | 0 mm | - | 0 W/m² | - |
| 1777604613 | 21.67° C | 38% | 1008.1 hPa | 0 mm | - | 0 W/m² | - |
| 1777604309 | 21.67° C | 39% | 1007.9 hPa | 0 mm | - | 0 W/m² | - |
| 1777604004 | 21.67° C | 38% | 1008.3 hPa | 0 mm | - | 0 W/m² | - |
| 1777603702 | 21.67° C | 38% | 1008.3 hPa | 0 mm | - | 0 W/m² | - |
| 1777603398 | 22.22° C | 38% | 1007.9 hPa | 0 mm | - | 0 W/m² | - |
| 1777603093 | 22.22° C | 37% | 1007.9 hPa | 0 mm | - | 2 W/m² | - |
| 1777602788 | 22.22° C | 37% | 1008 hPa | 0 mm | - | 6 W/m² | - |
| 1777602484 | 22.78° C | 37% | 1007.9 hPa | 0 mm | - | 10 W/m² | - |
| 1777602180 | 22.78° C | 36% | 1007.9 hPa | 0 mm | - | 13 W/m² | - |
| 1777601876 | 22.78° C | 36% | 1008.1 hPa | 0 mm | - | 18 W/m² | - |
| 1777601571 | 23.33° C | 36% | 1007.8 hPa | 0 mm | - | 23 W/m² | - |
| 1777601266 | 23.89° C | 34% | 1007.6 hPa | 0 mm | - | 28 W/m² | - |
| 1777600964 | 23.89° C | 34% | 1007.6 hPa | 0 mm | - | 32 W/m² | - |
| 1777600659 | 24.44° C | 33% | 1007.5 hPa | 0 mm | - | 38 W/m² | - |
| 1777600356 | 24.44° C | 33% | 1007.2 hPa | 0 mm | - | 42 W/m² | - |
| 1777600052 | 24.44° C | 32% | 1007.3 hPa | 0 mm | - | 48 W/m² | - |
| 1777599748 | 25° C | 32% | 1007.3 hPa | 0 mm | - | 66 W/m² | - |
| 1777599444 | 25° C | 32% | 1007.3 hPa | 0 mm | - | 84 W/m² | - |
| 1777599141 | 25° C | 32% | 1007.5 hPa | 0 mm | - | 98 W/m² | - |
| 1777598839 | 25° C | 32% | 1007.4 hPa | 0 mm | - | 118 W/m² | - |
* Rain latest hour (hover to see other rain measurements)
** Current wind speed in m/s (hover to see current wind gust speed)